User: anonymous   Login
Location: Vancouver
(49.2500°N, 123.1330°W)
Time: 23:10:23
(UTC-08:00)
Language:

Cosmos 2333 Rocket - Orbit

View from above orbital plane
View from above orbital plane
View from above satellite
View from above satellite

Ground track
Ground track

The orbit data is extracted from the following two-line orbital elements,

1 24298U 96051B   15030.77431808 -.00000171  00000-0 -66212-4 0  6576
2 24298 070.8531 092.6393 0014738 025.0634 113.3450 14.12444309949209
Epoch (UTC): 30 January 2015 18:35:01
Eccentricity: 0.0014738
inclination: 70.8531°
perigee height: 840 km
apogee height: 861 km
right ascension of ascending node: 92.6393°
argument of perigee: 25.0634°
revolutions per day: 14.12444309
mean anomaly at epoch: 113.3450°
orbit number at epoch: 94920

The dashed part of the orbit path shows where the satellite is in the earth's shadow,  

DLR